SL-16 DEB, 22409

Orbit data source: Space-Track

SL-16 DEB, 22409 is space debris in LEO originally from a launch on Fri, 25 Dec 1992 UTC launched from the Tyuratam Missile And Space Complex (TTMTR). Debris objects in space refer to the collection of defunct objects orbiting the Earth. Examples of debris include non-operational satellites, rocket bodies, and fragments generated from explosions, collisions, or faulty payload assembly.

Loading next visibility...
Identifier
22409, 1992-093DA
Orbit
LEO
Country
Flag of CISCIS
Related business
Manufacturer
Unknown
Mission
Spacecraft
Bus & Motor
Unknown
Mass
Unknown
Launch date (UTC)
1992-12-25 (33 years ago)
Launch vehicle
Unknown
Launch site
Tyuratam Missile And Space Complex (TTMTR)
Object type
Payload
Rocket body
Debris
Shape & HBR
Unknown shape, 0.3 m
Radar Cross Section
Medium (>0.1 m² and <1 m²)

Expand to show TLE details & history
Last TLE update: 18 hours ago

TLE from 18 hours ago
0 SL-16 DEB
1 22409U 92093DA  25349.32751454  .00001197  00000-0  23145-3 0  9990
2 22409  71.1299 213.4265 0118567 271.5102 202.0789 14.61259457721874
Epoch: 2025-12-15T07:51Z
TLE epoch observation values (Epoch: 2025-12-15T07:51:37.256Z)
Latitude
60.62363°
Longitude
154.14054°
Altitude
776.713 km
Speed
7.43 km/s
True Right ascension
23h 45m 05s
True Declination
60° 28' 36"
Sunlit
Object was in daylight at epoch
Visualization orbit readout
Latitude
Unknown
Longitude
Unknown
Altitude
Unknown
Speed
Unknown
Apparent Right ascension
Unknown
Apparent Declination
Unknown
Sunlit
N/A
Visualization observer readout
Local Sidereal Time
00:23:56
Azimuth
Unknown
Elevation
Unknown
Doppler factor
Unknown
Orbital elements
Apogee altitude
770.745 km
Perigee altitude
603.208 km
Semi-major axis
7,065.114 km
Eccentricity
0.01186
Inclination
71.1299°
RAAN
213.4265°
Arg. of periapsis
271.5102°
True anomaly
201.57513°
Mean anomaly
202.0789°
Eccentric anomaly
201.82633°
Mean motion
3.65481 °/min
Orbital period
98.5 mins
BSTAR
0.00023145
Loading maneuver chart data...
Computing Atmospheric mass density...
Loading historical data...
Loading historical data...
Loading historical data...
Loading historical data...
Loading historical data...
Loading historical data...
Loading historical data...

Documentation

Showing up to 5 results
|